owner,sensor,date,latitude,longitude,vertical_datum,wind_speed,wind_to_direction,wind_speed_of_gust,qcFlag 
LOOP,urn:ioos:station:wmo:lopl1:1,2017-11-01T00:50:00Z,28.8850,-90.0250,10.0,6.2,150.0,7.2,'1111122,1111122,1111122' 
LOOP,urn:ioos:station:wmo:lopl1:1,2017-11-01T01:50:00Z,28.8850,-90.0250,10.0,6.2,140.0,7.2,'1111122,1111122,1111122' 
LOOP,urn:ioos:station:wmo:lopl1:1,2017-11-01T02:50:00Z,28.8850,-90.0250,10.0,6.7,141.0,7.6,'11111222,11111222,11111222' 
LOOP,urn:ioos:station:wmo:lopl1:1,2017-11-01T03:50:00Z,28.8850,-90.0250,10.0,8.8,140.0,9.8,'1111122,1111122,1111122' 
LOOP,urn:ioos:station:wmo:lopl1:1,2017-11-01T04:50:00Z,28.8850,-90.0250,10.0,10.3,150.0,10.8,'1111122,1111122,1111122' 
LOOP,urn:ioos:station:wmo:lopl1:1,2017-11-01T05:50:00Z,28.8850,-90.0250,10.0,9.8,160.0,10.8,'1111122,1111122,1111122' 
LOOP,urn:ioos:station:wmo:lopl1:1,2017-11-01T06:55:00Z,28.8850,-90.0250,10.0,9.8,160.0,10.8,'1111122,1111122,1111122' 
LOOP,urn:ioos:station:wmo:lopl1:1,2017-11-01T07:55:00Z,28.8850,-90.0250,10.0,9.3,170.0,11.3,'1111122,1111122,1111122' 
LOOP,urn:ioos:station:wmo:lopl1:1,2017-11-01T08:55:00Z,28.8850,-90.0250,10.0,8.8,160.0,9.8,'1111122,1111122,1111122' 
LOOP,urn:ioos:station:wmo:lopl1:1,2017-11-01T09:55:00Z,28.8850,-90.0250,10.0,9.3,170.0,11.3,'1111122,1111122,1111122' 
LOOP,urn:ioos:station:wmo:lopl1:1,2017-11-01T10:55:00Z,28.8850,-90.0250,10.0,9.8,170.0,10.3,'1111122,1111122,1111122' 
LOOP,urn:ioos:station:wmo:lopl1:1,2017-11-01T11:55:00Z,28.8850,-90.0250,10.0,9.8,160.0,11.3,'1111122,1111122,1111122' 
LOOP,urn:ioos:station:wmo:lopl1:1,2017-11-01T12:55:00Z,28.8850,-90.0250,10.0,9.8,160.0,10.3,'1111122,1111122,1111122' 
LOOP,urn:ioos:station:wmo:lopl1:1,2017-11-01T13:55:00Z,28.8850,-90.0250,10.0,10.3,160.0,10.8,'1111122,1111122,1111122' 
LOOP,urn:ioos:station:wmo:lopl1:1,2017-11-01T14:55:00Z,28.8850,-90.0250,10.0,9.3,160.0,10.3,'1111122,1111122,1111122' 
LOOP,urn:ioos:station:wmo:lopl1:1,2017-11-01T15:55:00Z,28.8850,-90.0250,10.0,9.8,170.0,11.3,'1111122,1111122,1111122' 
LOOP,urn:ioos:station:wmo:lopl1:1,2017-11-01T16:55:00Z,28.8850,-90.0250,10.0,8.8,180.0,10.8,'1111122,1111122,1111122' 
LOOP,urn:ioos:station:wmo:lopl1:1,2017-11-01T17:55:00Z,28.8850,-90.0250,10.0,9.8,170.0,12.4,'1111122,1111122,1111122' 
LOOP,urn:ioos:station:wmo:lopl1:1,2017-11-01T18:55:00Z,28.8850,-90.0250,10.0,7.7,-9999.0,12.9,'1111122,1111122,1111122' 
LOOP,urn:ioos:station:wmo:lopl1:1,2017-11-01T19:55:00Z,28.8850,-90.0250,10.0,6.7,-9999.0,10.3,'1111122,1111122,1111122' 
LOOP,urn:ioos:station:wmo:lopl1:1,2017-11-01T20:55:00Z,28.8850,-90.0250,10.0,7.2,170.0,10.3,'1111122,1111122,1111122' 
LOOP,urn:ioos:station:wmo:lopl1:1,2017-11-01T21:55:00Z,28.8850,-90.0250,10.0,6.7,-9999.0,9.8,'1111122,1111122,1111122' 
LOOP,urn:ioos:station:wmo:lopl1:1,2017-11-01T22:55:00Z,28.8850,-90.0250,10.0,6.7,-9999.0,10.8,'1111122,1111122,1111122' 
LOOP,urn:ioos:station:wmo:lopl1:1,2017-11-01T23:55:00Z,28.8850,-90.0250,10.0,6.2,-9999.0,9.3,'1111122,1111122,1111122' 
LOOP,urn:ioos:station:wmo:lopl1:1,2017-11-02T00:55:00Z,28.8850,-90.0250,10.0,6.7,170.0,9.8,'1111122,1111122,1111122' 
LOOP,urn:ioos:station:wmo:lopl1:1,2017-11-02T01:55:00Z,28.8850,-90.0250,10.0,7.7,170.0,10.8,'1111122,1111122,1111122' 
LOOP,urn:ioos:station:wmo:lopl1:1,2017-11-02T02:55:00Z,28.8850,-90.0250,10.0,7.7,160.0,11.3,'1111122,1111122,1111122' 
LOOP,urn:ioos:station:wmo:lopl1:1,2017-11-02T03:55:00Z,28.8850,-90.0250,10.0,6.2,-9999.0,8.8,'1111122,1111122,1111122' 
LOOP,urn:ioos:station:wmo:lopl1:1,2017-11-02T04:55:00Z,28.8850,-90.0250,10.0,6.7,180.0,9.3,'1111122,1111122,1111122' 
LOOP,urn:ioos:station:wmo:lopl1:1,2017-11-02T05:55:00Z,28.8850,-90.0250,10.0,6.7,-9999.0,9.3,'1111122,1111122,1111122' 
LOOP,urn:ioos:station:wmo:lopl1:1,2017-11-02T06:55:00Z,28.8850,-90.0250,10.0,6.7,-9999.0,9.8,'1111122,1111122,1111122' 
LOOP,urn:ioos:station:wmo:lopl1:1,2017-11-02T07:55:00Z,28.8850,-90.0250,10.0,6.2,-9999.0,8.2,'1111122,1111122,1111122' 
LOOP,urn:ioos:station:wmo:lopl1:1,2017-11-02T08:55:00Z,28.8850,-90.0250,10.0,6.2,-9999.0,7.7,'1111122,1111122,1111122' 
LOOP,urn:ioos:station:wmo:lopl1:1,2017-11-02T09:55:00Z,28.8850,-90.0250,10.0,6.2,-9999.0,8.2,'1111122,1111122,1111122' 
LOOP,urn:ioos:station:wmo:lopl1:1,2017-11-02T10:55:00Z,28.8850,-90.0250,10.0,3.6,-9999.0,5.7,'1111122,1111122,1111122' 
LOOP,urn:ioos:station:wmo:lopl1:1,2017-11-02T11:55:00Z,28.8850,-90.0250,10.0,3.6,-9999.0,4.6,'1111122,1111122,1111122' 
LOOP,urn:ioos:station:wmo:lopl1:1,2017-11-02T12:55:00Z,28.8850,-90.0250,10.0,4.1,-9999.0,5.7,'1111122,1111122,1111122' 
LOOP,urn:ioos:station:wmo:lopl1:1,2017-11-02T14:00:00Z,28.8850,-90.0250,10.0,3.6,-9999.0,6.2,'1111122,1111122,1111122' 
LOOP,urn:ioos:station:wmo:lopl1:1,2017-11-02T15:00:00Z,28.8850,-90.0250,10.0,3.1,170.0,4.6,'1111122,1111122,1111122' 
LOOP,urn:ioos:station:wmo:lopl1:1,2017-11-02T16:00:00Z,28.8850,-90.0250,10.0,5.1,160.0,5.7,'1111122,1111122,1111122' 
LOOP,urn:ioos:station:wmo:lopl1:1,2017-11-02T17:00:00Z,28.8850,-90.0250,10.0,5.7,170.0,6.2,'1111122,1111122,1111122' 
LOOP,urn:ioos:station:wmo:lopl1:1,2017-11-02T18:00:00Z,28.8850,-90.0250,10.0,5.1,160.0,6.2,'1111122,1111122,1111122' 
LOOP,urn:ioos:station:wmo:lopl1:1,2017-11-02T19:00:00Z,28.8850,-90.0250,10.0,4.6,170.0,5.7,'1111122,1111122,1111122' 
LOOP,urn:ioos:station:wmo:lopl1:1,2017-11-02T20:00:00Z,28.8850,-90.0250,10.0,4.6,170.0,5.1,'1111122,1111122,1111122' 
LOOP,urn:ioos:station:wmo:lopl1:1,2017-11-02T21:00:00Z,28.8850,-90.0250,10.0,4.1,160.0,4.6,'1111122,1111122,1111122' 
LOOP,urn:ioos:station:wmo:lopl1:1,2017-11-02T22:00:00Z,28.8850,-90.0250,10.0,4.6,160.0,5.1,'1111122,1111122,1111122' 
LOOP,urn:ioos:station:wmo:lopl1:1,2017-11-02T23:00:00Z,28.8850,-90.0250,10.0,5.1,150.0,5.7,'1111122,1111122,1111122' 
LOOP,urn:ioos:station:wmo:lopl1:1,2017-11-03T00:00:00Z,28.8850,-90.0250,10.0,5.1,160.0,5.7,'1111122,1111122,1111122' 
LOOP,urn:ioos:station:wmo:lopl1:1,2017-11-03T01:00:00Z,28.8850,-90.0250,10.0,6.2,150.0,6.2,'1111122,1111122,1111122' 
LOOP,urn:ioos:station:wmo:lopl1:1,2017-11-03T02:00:00Z,28.8850,-90.0250,10.0,6.2,150.0,6.2,'1111122,1111122,1111122' 
LOOP,urn:ioos:station:wmo:lopl1:1,2017-11-03T03:00:00Z,28.8850,-90.0250,10.0,5.7,150.0,6.2,'1111122,1111122,1111122' 
LOOP,urn:ioos:station:wmo:lopl1:1,2017-11-03T04:00:00Z,28.8850,-90.0250,10.0,6.2,160.0,6.2,'1111122,1111122,1111122' 
LOOP,urn:ioos:station:wmo:lopl1:1,2017-11-03T05:00:00Z,28.8850,-90.0250,10.0,5.7,160.0,6.7,'1111122,1111122,1111122' 
LOOP,urn:ioos:station:wmo:lopl1:1,2017-11-03T06:00:00Z,28.8850,-90.0250,10.0,5.1,160.0,5.7,'1111122,1111122,1111122' 
LOOP,urn:ioos:station:wmo:lopl1:1,2017-11-03T07:00:00Z,28.8850,-90.0250,10.0,3.6,170.0,5.1,'1111122,1111122,1111122' 
LOOP,urn:ioos:station:wmo:lopl1:1,2017-11-03T08:00:00Z,28.8850,-90.0250,10.0,3.1,-9999.0,4.6,'1111122,1111122,1111122' 
LOOP,urn:ioos:station:wmo:lopl1:1,2017-11-03T09:00:00Z,28.8850,-90.0250,10.0,3.6,170.0,5.1,'1111122,1111122,1111122' 
LOOP,urn:ioos:station:wmo:lopl1:1,2017-11-03T10:00:00Z,28.8850,-90.0250,10.0,2.1,-9999.0,3.1,'1111122,1111122,1111122' 
LOOP,urn:ioos:station:wmo:lopl1:1,2017-11-03T11:00:00Z,28.8850,-90.0250,10.0,1.0,-9999.0,1.5,'1111122,1111122,1111122' 
LOOP,urn:ioos:station:wmo:lopl1:1,2017-11-03T12:00:00Z,28.8850,-90.0250,10.0,0.0,-9999.0,1.0,'1114422,1111122,1111122' 
LOOP,urn:ioos:station:wmo:lopl1:1,2017-11-03T13:00:00Z,28.8850,-90.0250,10.0,0.5,30.0,1.0,'1111122,1111122,1111122' 
LOOP,urn:ioos:station:wmo:lopl1:1,2017-11-03T14:00:00Z,28.8850,-90.0250,10.0,0.5,130.0,1.0,'1111122,1111122,1111122' 
LOOP,urn:ioos:station:wmo:lopl1:1,2017-11-03T15:00:00Z,28.8850,-90.0250,10.0,1.0,130.0,1.0,'1111122,1111122,1111122' 
LOOP,urn:ioos:station:wmo:lopl1:1,2017-11-03T16:00:00Z,28.8850,-90.0250,10.0,1.5,80.0,2.1,'1111122,1111122,1111122' 
LOOP,urn:ioos:station:wmo:lopl1:1,2017-11-03T17:05:00Z,28.8850,-90.0250,10.0,2.6,80.0,3.1,'1111122,1111122,1111122' 
LOOP,urn:ioos:station:wmo:lopl1:1,2017-11-03T18:05:00Z,28.8850,-90.0250,10.0,2.6,110.0,3.1,'1111122,1111122,1111122' 
LOOP,urn:ioos:station:wmo:lopl1:1,2017-11-03T19:05:00Z,28.8850,-90.0250,10.0,3.1,130.0,3.6,'1111122,1111122,1111122' 
LOOP,urn:ioos:station:wmo:lopl1:1,2017-11-03T20:05:00Z,28.8850,-90.0250,10.0,3.1,110.0,3.6,'1111122,1111122,1111122' 
LOOP,urn:ioos:station:wmo:lopl1:1,2017-11-03T21:05:00Z,28.8850,-90.0250,10.0,4.1,150.0,4.6,'1111122,1111122,1111122' 
LOOP,urn:ioos:station:wmo:lopl1:1,2017-11-03T22:05:00Z,28.8850,-90.0250,10.0,4.1,140.0,4.6,'1111122,1111122,1111122' 
LOOP,urn:ioos:station:wmo:lopl1:1,2017-11-03T23:05:00Z,28.8850,-90.0250,10.0,4.1,140.0,4.6,'1111122,1111122,1111122' 
LOOP,urn:ioos:station:wmo:lopl1:1,2017-11-04T00:05:00Z,28.8850,-90.0250,10.0,4.6,150.0,4.6,'1111122,1111122,1111122' 
LOOP,urn:ioos:station:wmo:lopl1:1,2017-11-04T01:05:00Z,28.8850,-90.0250,10.0,4.6,160.0,5.1,'1111122,1111122,1111122' 
LOOP,urn:ioos:station:wmo:lopl1:1,2017-11-04T02:05:00Z,28.8850,-90.0250,10.0,4.6,150.0,4.6,'1111122,1111122,1111122' 
LOOP,urn:ioos:station:wmo:lopl1:1,2017-11-04T03:05:00Z,28.8850,-90.0250,10.0,5.1,160.0,5.7,'1111122,1111122,1111122' 
LOOP,urn:ioos:station:wmo:lopl1:1,2017-11-04T04:05:00Z,28.8850,-90.0250,10.0,4.6,170.0,5.1,'1111122,1111122,1111122' 
LOOP,urn:ioos:station:wmo:lopl1:1,2017-11-04T05:05:00Z,28.8850,-90.0250,10.0,4.1,160.0,4.6,'1111122,1111122,1111122' 
LOOP,urn:ioos:station:wmo:lopl1:1,2017-11-04T06:05:00Z,28.8850,-90.0250,10.0,3.1,160.0,3.1,'1111122,1111122,1111122' 
LOOP,urn:ioos:station:wmo:lopl1:1,2017-11-04T07:05:00Z,28.8850,-90.0250,10.0,3.1,160.0,3.6,'1111122,1111122,1111122' 
LOOP,urn:ioos:station:wmo:lopl1:1,2017-11-04T08:05:00Z,28.8850,-90.0250,10.0,3.1,160.0,3.1,'1111122,1111122,1111122' 
LOOP,urn:ioos:station:wmo:lopl1:1,2017-11-04T09:05:00Z,28.8850,-90.0250,10.0,2.6,170.0,2.6,'1111122,1111122,1111122' 
LOOP,urn:ioos:station:wmo:lopl1:1,2017-11-04T10:05:00Z,28.8850,-90.0250,10.0,2.1,130.0,2.1,'1111122,1111122,1111122' 
LOOP,urn:ioos:station:wmo:lopl1:1,2017-11-04T11:05:00Z,28.8850,-90.0250,10.0,2.1,140.0,2.1,'1111122,1111122,1111122' 
LOOP,urn:ioos:station:wmo:lopl1:1,2017-11-04T12:05:00Z,28.8850,-90.0250,10.0,2.1,90.0,2.6,'1111122,1111122,1111122' 
LOOP,urn:ioos:station:wmo:lopl1:1,2017-11-04T13:05:00Z,28.8850,-90.0250,10.0,2.6,90.0,3.1,'1111122,1111122,1111122' 
LOOP,urn:ioos:station:wmo:lopl1:1,2017-11-04T14:05:00Z,28.8850,-90.0250,10.0,3.6,100.0,4.1,'1111122,1111122,1111122' 
LOOP,urn:ioos:station:wmo:lopl1:1,2017-11-04T15:05:00Z,28.8850,-90.0250,10.0,4.1,100.0,4.6,'1111122,1111122,1111122' 
LOOP,urn:ioos:station:wmo:lopl1:1,2017-11-04T16:05:00Z,28.8850,-90.0250,10.0,3.6,110.0,4.1,'1111122,1111122,1111122' 
LOOP,urn:ioos:station:wmo:lopl1:1,2017-11-04T17:05:00Z,28.8850,-90.0250,10.0,3.6,120.0,4.1,'1111122,1111122,1111122' 
LOOP,urn:ioos:station:wmo:lopl1:1,2017-11-04T18:05:00Z,28.8850,-90.0250,10.0,2.6,110.0,3.1,'1111122,1111122,1111122' 
LOOP,urn:ioos:station:wmo:lopl1:1,2017-11-04T19:05:00Z,28.8850,-90.0250,10.0,2.6,120.0,3.1,'1111122,1111122,1111122' 
LOOP,urn:ioos:station:wmo:lopl1:1,2017-11-04T20:05:00Z,28.8850,-90.0250,10.0,2.6,110.0,3.1,'1111122,1111122,1111122' 
LOOP,urn:ioos:station:wmo:lopl1:1,2017-11-04T21:05:00Z,28.8850,-90.0250,10.0,3.1,130.0,3.6,'1111122,1111122,1111122' 
LOOP,urn:ioos:station:wmo:lopl1:1,2017-11-04T22:05:00Z,28.8850,-90.0250,10.0,3.6,130.0,4.1,'1111122,1111122,1111122' 
LOOP,urn:ioos:station:wmo:lopl1:1,2017-11-04T23:05:00Z,28.8850,-90.0250,10.0,3.6,140.0,4.1,'1111122,1111122,1111122' 
LOOP,urn:ioos:station:wmo:lopl1:1,2017-11-05T00:05:00Z,28.8850,-90.0250,10.0,4.1,140.0,4.6,'1111122,1111122,1111122' 
LOOP,urn:ioos:station:wmo:lopl1:1,2017-11-05T01:05:00Z,28.8850,-90.0250,10.0,4.1,130.0,4.1,'1111122,1111122,1111122' 
LOOP,urn:ioos:station:wmo:lopl1:1,2017-11-05T02:10:00Z,28.8850,-90.0250,10.0,3.6,140.0,4.1,'1111122,1111122,1111122' 
LOOP,urn:ioos:station:wmo:lopl1:1,2017-11-05T03:10:00Z,28.8850,-90.0250,10.0,4.1,130.0,4.6,'1111122,1111122,1111122' 
LOOP,urn:ioos:station:wmo:lopl1:1,2017-11-05T04:10:00Z,28.8850,-90.0250,10.0,3.1,160.0,3.6,'1111122,1111122,1111122' 
LOOP,urn:ioos:station:wmo:lopl1:1,2017-11-05T05:10:00Z,28.8850,-90.0250,10.0,3.6,170.0,5.1,'1111122,1111122,1111122' 
LOOP,urn:ioos:station:wmo:lopl1:1,2017-11-05T06:10:00Z,28.8850,-90.0250,10.0,3.1,170.0,4.6,'1111122,1111122,1111122' 
LOOP,urn:ioos:station:wmo:lopl1:1,2017-11-05T07:10:00Z,28.8850,-90.0250,10.0,4.1,-9999.0,5.1,'1111122,1111122,1111122' 
LOOP,urn:ioos:station:wmo:lopl1:1,2017-11-05T08:10:00Z,28.8850,-90.0250,10.0,5.1,-9999.0,5.7,'1111122,1111122,1111122' 
LOOP,urn:ioos:station:wmo:lopl1:1,2017-11-05T09:10:00Z,28.8850,-90.0250,10.0,4.6,-9999.0,5.1,'1111122,1111122,1111122' 
LOOP,urn:ioos:station:wmo:lopl1:1,2017-11-05T10:10:00Z,28.8850,-90.0250,10.0,4.6,-9999.0,5.1,'1111122,1111122,1111122' 
LOOP,urn:ioos:station:wmo:lopl1:1,2017-11-05T11:10:00Z,28.8850,-90.0250,10.0,4.1,-9999.0,4.1,'1111122,1111122,1111122' 
LOOP,urn:ioos:station:wmo:lopl1:1,2017-11-05T12:10:00Z,28.8850,-90.0250,10.0,2.6,-9999.0,2.6,'1111122,1111122,1111122' 
LOOP,urn:ioos:station:wmo:lopl1:1,2017-11-05T13:10:00Z,28.8850,-90.0250,10.0,2.1,160.0,3.1,'1111122,1111122,1111122' 
LOOP,urn:ioos:station:wmo:lopl1:1,2017-11-05T14:10:00Z,28.8850,-90.0250,10.0,2.1,-9999.0,3.1,'1111122,1111122,1111122' 
LOOP,urn:ioos:station:wmo:lopl1:1,2017-11-05T15:10:00Z,28.8850,-90.0250,10.0,2.1,-9999.0,3.1,'1111122,1111122,1111122' 
LOOP,urn:ioos:station:wmo:lopl1:1,2017-11-05T16:10:00Z,28.8850,-90.0250,10.0,2.1,-9999.0,3.1,'1111122,1111122,1111122' 
LOOP,urn:ioos:station:wmo:lopl1:1,2017-11-05T17:10:00Z,28.8850,-90.0250,10.0,3.1,-9999.0,3.6,'1111122,1111122,1111122' 
LOOP,urn:ioos:station:wmo:lopl1:1,2017-11-05T18:10:00Z,28.8850,-90.0250,10.0,2.6,-9999.0,3.6,'1111122,1111122,1111122' 
LOOP,urn:ioos:station:wmo:lopl1:1,2017-11-05T19:10:00Z,28.8850,-90.0250,10.0,2.1,-9999.0,2.6,'1111122,1111122,1111122' 
LOOP,urn:ioos:station:wmo:lopl1:1,2017-11-05T20:10:00Z,28.8850,-90.0250,10.0,2.1,-9999.0,3.1,'1111122,1111122,1111122' 
LOOP,urn:ioos:station:wmo:lopl1:1,2017-11-05T21:10:00Z,28.8850,-90.0250,10.0,2.1,-9999.0,2.6,'1111122,1111122,1111122' 
LOOP,urn:ioos:station:wmo:lopl1:1,2017-11-05T22:10:00Z,28.8850,-90.0250,10.0,2.1,180.0,3.6,'1111122,1111122,1111122' 
LOOP,urn:ioos:station:wmo:lopl1:1,2017-11-05T23:10:00Z,28.8850,-90.0250,10.0,2.6,-9999.0,3.6,'1111122,1111122,1111122' 
LOOP,urn:ioos:station:wmo:lopl1:1,2017-11-06T00:10:00Z,28.8850,-90.0250,10.0,3.1,-9999.0,4.1,'1111122,1111122,1111122' 
LOOP,urn:ioos:station:wmo:lopl1:1,2017-11-06T01:10:00Z,28.8850,-90.0250,10.0,3.1,-9999.0,4.6,'1111122,1111122,1111122' 
LOOP,urn:ioos:station:wmo:lopl1:1,2017-11-06T02:10:00Z,28.8850,-90.0250,10.0,4.1,-9999.0,5.1,'1111122,1111122,1111122' 
LOOP,urn:ioos:station:wmo:lopl1:1,2017-11-06T03:10:00Z,28.8850,-90.0250,10.0,4.6,-9999.0,6.2,'1111122,1111122,1111122' 
LOOP,urn:ioos:station:wmo:lopl1:1,2017-11-06T04:10:00Z,28.8850,-90.0250,10.0,4.6,-9999.0,6.2,'1111122,1111122,1111122' 
LOOP,urn:ioos:station:wmo:lopl1:1,2017-11-06T05:10:00Z,28.8850,-90.0250,10.0,4.1,-9999.0,5.7,'1111122,1111122,1111122' 
LOOP,urn:ioos:station:wmo:lopl1:1,2017-11-06T06:10:00Z,28.8850,-90.0250,10.0,4.1,-9999.0,6.2,'1111122,1111122,1111122' 
LOOP,urn:ioos:station:wmo:lopl1:1,2017-11-06T07:10:00Z,28.8850,-90.0250,10.0,5.7,-9999.0,6.2,'1111122,1111122,1111122' 
LOOP,urn:ioos:station:wmo:lopl1:1,2017-11-06T08:10:00Z,28.8850,-90.0250,10.0,5.7,-9999.0,6.7,'1111122,1111122,1111122' 
LOOP,urn:ioos:station:wmo:lopl1:1,2017-11-06T09:10:00Z,28.8850,-90.0250,10.0,6.2,-9999.0,7.2,'1111122,1111122,1111122' 
LOOP,urn:ioos:station:wmo:lopl1:1,2017-11-06T10:10:00Z,28.8850,-90.0250,10.0,5.1,-9999.0,5.7,'1111122,1111122,1111122' 
LOOP,urn:ioos:station:wmo:lopl1:1,2017-11-06T11:10:00Z,28.8850,-90.0250,10.0,3.6,-9999.0,4.6,'1111122,1111122,1111122' 
LOOP,urn:ioos:station:wmo:lopl1:1,2017-11-06T12:10:00Z,28.8850,-90.0250,10.0,3.6,-9999.0,4.1,'1111122,1111122,1111122' 
LOOP,urn:ioos:station:wmo:lopl1:1,2017-11-06T13:15:00Z,28.8850,-90.0250,10.0,2.6,-9999.0,2.6,'1111122,1111122,1111122' 
LOOP,urn:ioos:station:wmo:lopl1:1,2017-11-06T14:15:00Z,28.8850,-90.0250,10.0,2.1,-9999.0,2.6,'1111122,1111122,1111122' 
LOOP,urn:ioos:station:wmo:lopl1:1,2017-11-06T15:15:00Z,28.8850,-90.0250,10.0,1.0,-9999.0,2.1,'1111122,1111122,1111122' 
LOOP,urn:ioos:station:wmo:lopl1:1,2017-11-06T16:15:00Z,28.8850,-90.0250,10.0,1.0,150.0,1.0,'1111122,1111122,1111122' 
LOOP,urn:ioos:station:wmo:lopl1:1,2017-11-06T17:15:00Z,28.8850,-90.0250,10.0,1.0,80.0,1.5,'1111122,1111122,1111122' 
LOOP,urn:ioos:station:wmo:lopl1:1,2017-11-06T18:15:00Z,28.8850,-90.0250,10.0,1.5,130.0,2.1,'1111122,1111122,1111122' 
LOOP,urn:ioos:station:wmo:lopl1:1,2017-11-06T19:15:00Z,28.8850,-90.0250,10.0,1.0,150.0,1.5,'1111122,1111122,1111122' 
LOOP,urn:ioos:station:wmo:lopl1:1,2017-11-06T20:15:00Z,28.8850,-90.0250,10.0,0.5,140.0,1.0,'1111122,1111122,1111122' 
LOOP,urn:ioos:station:wmo:lopl1:1,2017-11-06T21:15:00Z,28.8850,-90.0250,10.0,0.0,-9999.0,1.0,'1114422,1111122,1111122' 
LOOP,urn:ioos:station:wmo:lopl1:1,2017-11-06T22:15:00Z,28.8850,-90.0250,10.0,1.5,-9999.0,2.6,'1111122,1111122,1111122' 
LOOP,urn:ioos:station:wmo:lopl1:1,2017-11-06T23:15:00Z,28.8850,-90.0250,10.0,2.1,-9999.0,2.6,'1111122,1111122,1111122' 
LOOP,urn:ioos:station:wmo:lopl1:1,2017-11-07T00:15:00Z,28.8850,-90.0250,10.0,2.6,-9999.0,3.6,'1111122,1111122,1111122' 
LOOP,urn:ioos:station:wmo:lopl1:1,2017-11-07T01:15:00Z,28.8850,-90.0250,10.0,2.6,-9999.0,3.1,'1111122,1111122,1111122' 
LOOP,urn:ioos:station:wmo:lopl1:1,2017-11-07T02:15:00Z,28.8850,-90.0250,10.0,3.6,-9999.0,4.1,'1111122,1111122,1111122' 
LOOP,urn:ioos:station:wmo:lopl1:1,2017-11-07T03:15:00Z,28.8850,-90.0250,10.0,3.1,-9999.0,4.1,'1111122,1111122,1111122' 
LOOP,urn:ioos:station:wmo:lopl1:1,2017-11-07T04:15:00Z,28.8850,-90.0250,10.0,3.6,-9999.0,4.6,'1111122,1111122,1111122' 
LOOP,urn:ioos:station:wmo:lopl1:1,2017-11-07T05:15:00Z,28.8850,-90.0250,10.0,3.1,-9999.0,4.1,'1111122,1111122,1111122' 
LOOP,urn:ioos:station:wmo:lopl1:1,2017-11-07T06:15:00Z,28.8850,-90.0250,10.0,2.6,-9999.0,4.1,'1111122,1111122,1111122' 
LOOP,urn:ioos:station:wmo:lopl1:1,2017-11-07T07:15:00Z,28.8850,-90.0250,10.0,3.1,-9999.0,4.1,'1111122,1111122,1111122' 
LOOP,urn:ioos:station:wmo:lopl1:1,2017-11-07T08:15:00Z,28.8850,-90.0250,10.0,3.1,-9999.0,4.1,'1111122,1111122,1111122' 
LOOP,urn:ioos:station:wmo:lopl1:1,2017-11-07T09:15:00Z,28.8850,-90.0250,10.0,3.1,-9999.0,3.6,'1111122,1111122,1111122' 
LOOP,urn:ioos:station:wmo:lopl1:1,2017-11-07T10:15:00Z,28.8850,-90.0250,10.0,3.1,-9999.0,4.1,'1111122,1111122,1111122' 
LOOP,urn:ioos:station:wmo:lopl1:1,2017-11-07T11:15:00Z,28.8850,-90.0250,10.0,3.6,-9999.0,4.1,'1111122,1111122,1111122' 
LOOP,urn:ioos:station:wmo:lopl1:1,2017-11-07T12:15:00Z,28.8850,-90.0250,10.0,2.6,-9999.0,3.1,'1111122,1111122,1111122' 
LOOP,urn:ioos:station:wmo:lopl1:1,2017-11-07T13:15:00Z,28.8850,-90.0250,10.0,2.6,-9999.0,3.1,'1111122,1111122,1111122' 
LOOP,urn:ioos:station:wmo:lopl1:1,2017-11-07T14:15:00Z,28.8850,-90.0250,10.0,3.1,-9999.0,3.6,'1111122,1111122,1111122' 
LOOP,urn:ioos:station:wmo:lopl1:1,2017-11-07T15:15:00Z,28.8850,-90.0250,10.0,3.6,-9999.0,3.6,'1111122,1111122,1111122' 
LOOP,urn:ioos:station:wmo:lopl1:1,2017-11-07T16:15:00Z,28.8850,-90.0250,10.0,2.1,-9999.0,3.1,'1111122,1111122,1111122' 
LOOP,urn:ioos:station:wmo:lopl1:1,2017-11-07T17:15:00Z,28.8850,-90.0250,10.0,2.6,290.0,3.6,'1111122,1111122,1111122' 
LOOP,urn:ioos:station:wmo:lopl1:1,2017-11-07T18:15:00Z,28.8850,-90.0250,10.0,1.5,310.0,3.1,'1111122,1111122,1111122' 
LOOP,urn:ioos:station:wmo:lopl1:1,2017-11-07T19:15:00Z,28.8850,-90.0250,10.0,2.1,310.0,2.6,'1111122,1111122,1111122' 
LOOP,urn:ioos:station:wmo:lopl1:1,2017-11-07T20:15:00Z,28.8850,-90.0250,10.0,2.1,280.0,3.1,'1111122,1111122,1111122' 
LOOP,urn:ioos:station:wmo:lopl1:1,2017-11-07T21:15:00Z,28.8850,-90.0250,10.0,2.1,290.0,2.6,'1111122,1111122,1111122' 
LOOP,urn:ioos:station:wmo:lopl1:1,2017-11-07T22:15:00Z,28.8850,-90.0250,10.0,2.6,-9999.0,3.1,'1111122,1111122,1111122' 
LOOP,urn:ioos:station:wmo:lopl1:1,2017-11-07T23:15:00Z,28.8850,-90.0250,10.0,3.1,-9999.0,3.6,'1111122,1111122,1111122' 
LOOP,urn:ioos:station:wmo:lopl1:1,2017-11-08T00:20:00Z,28.8850,-90.0250,10.0,3.1,-9999.0,3.6,'1111122,1111122,1111122' 
LOOP,urn:ioos:station:wmo:lopl1:1,2017-11-08T01:20:00Z,28.8850,-90.0250,10.0,1.5,-9999.0,2.6,'1111122,1111122,1111122' 
LOOP,urn:ioos:station:wmo:lopl1:1,2017-11-08T02:20:00Z,28.8850,-90.0250,10.0,3.1,-9999.0,3.6,'1111122,1111122,1111122' 
LOOP,urn:ioos:station:wmo:lopl1:1,2017-11-08T03:20:00Z,28.8850,-90.0250,10.0,3.1,-9999.0,4.1,'1111122,1111122,1111122' 
LOOP,urn:ioos:station:wmo:lopl1:1,2017-11-08T04:20:00Z,28.8850,-90.0250,10.0,3.1,-9999.0,3.7,'11111222,99999999,11111222' 
LOOP,urn:ioos:station:wmo:lopl1:1,2017-11-08T05:20:00Z,28.8850,-90.0250,10.0,2.6,-9999.0,3.6,'1111122,1111122,1111122' 
LOOP,urn:ioos:station:wmo:lopl1:1,2017-11-08T06:20:00Z,28.8850,-90.0250,10.0,2.6,-9999.0,4.1,'1111122,1111122,1111122' 
LOOP,urn:ioos:station:wmo:lopl1:1,2017-11-08T07:20:00Z,28.8850,-90.0250,10.0,2.6,280.0,2.6,'1111122,1111122,1111122' 
LOOP,urn:ioos:station:wmo:lopl1:1,2017-11-08T08:20:00Z,28.8850,-90.0250,10.0,1.5,280.0,2.6,'1111122,1111122,1111122' 
LOOP,urn:ioos:station:wmo:lopl1:1,2017-11-08T09:20:00Z,28.8850,-90.0250,10.0,2.1,280.0,2.6,'1111122,1111122,1111122' 
LOOP,urn:ioos:station:wmo:lopl1:1,2017-11-08T10:20:00Z,28.8850,-90.0250,10.0,2.6,290.0,3.1,'1111122,1111122,1111122' 
LOOP,urn:ioos:station:wmo:lopl1:1,2017-11-08T11:20:00Z,28.8850,-90.0250,10.0,2.6,310.0,3.1,'1111122,1111122,1111122' 
LOOP,urn:ioos:station:wmo:lopl1:1,2017-11-08T12:20:00Z,28.8850,-90.0250,10.0,2.6,340.0,5.1,'1111122,1111122,1111122' 
LOOP,urn:ioos:station:wmo:lopl1:1,2017-11-08T13:20:00Z,28.8850,-90.0250,10.0,1.5,340.0,3.1,'1111122,1111122,1111122' 
LOOP,urn:ioos:station:wmo:lopl1:1,2017-11-08T14:20:00Z,28.8850,-90.0250,10.0,3.1,330.0,4.1,'1111122,1111122,1111122' 
LOOP,urn:ioos:station:wmo:lopl1:1,2017-11-08T15:20:00Z,28.8850,-90.0250,10.0,1.5,340.0,2.6,'1111122,1111122,1111122' 
LOOP,urn:ioos:station:wmo:lopl1:1,2017-11-08T16:20:00Z,28.8850,-90.0250,10.0,1.5,20.0,2.1,'1111122,1111122,1111122' 
LOOP,urn:ioos:station:wmo:lopl1:1,2017-11-08T17:20:00Z,28.8850,-90.0250,10.0,1.5,40.0,2.1,'1111122,1111122,1111122' 
LOOP,urn:ioos:station:wmo:lopl1:1,2017-11-08T18:20:00Z,28.8850,-90.0250,10.0,2.1,360.0,2.6,'1111122,1111122,1111122' 
LOOP,urn:ioos:station:wmo:lopl1:1,2017-11-08T19:20:00Z,28.8850,-90.0250,10.0,1.5,50.0,2.1,'1111122,1111122,1111122' 
LOOP,urn:ioos:station:wmo:lopl1:1,2017-11-08T20:20:00Z,28.8850,-90.0250,10.0,1.5,360.0,2.1,'1111122,1111122,1111122' 
LOOP,urn:ioos:station:wmo:lopl1:1,2017-11-08T21:20:00Z,28.8850,-90.0250,10.0,1.5,80.0,2.1,'1111122,1111122,1111122' 
LOOP,urn:ioos:station:wmo:lopl1:1,2017-11-08T22:20:00Z,28.8850,-90.0250,10.0,1.0,150.0,1.0,'1111122,1111122,1111122' 
LOOP,urn:ioos:station:wmo:lopl1:1,2017-11-08T23:20:00Z,28.8850,-90.0250,10.0,0.5,90.0,1.0,'1111122,1111122,1111122' 
LOOP,urn:ioos:station:wmo:lopl1:1,2017-11-09T00:20:00Z,28.8850,-90.0250,10.0,0.5,60.0,0.5,'1111122,1111122,1111122' 
LOOP,urn:ioos:station:wmo:lopl1:1,2017-11-09T01:20:00Z,28.8850,-90.0250,10.0,0.5,-9999.0,1.0,'1111122,1111122,1111122' 
LOOP,urn:ioos:station:wmo:lopl1:1,2017-11-09T02:20:00Z,28.8850,-90.0250,10.0,2.1,300.0,2.6,'1111122,1111122,1111122' 
LOOP,urn:ioos:station:wmo:lopl1:1,2017-11-09T03:20:00Z,28.8850,-90.0250,10.0,6.7,360.0,9.3,'1111122,1111122,1111122' 
LOOP,urn:ioos:station:wmo:lopl1:1,2017-11-09T04:20:00Z,28.8850,-90.0250,10.0,7.2,10.0,9.8,'1111122,1111122,1111122' 
LOOP,urn:ioos:station:wmo:lopl1:1,2017-11-09T05:20:00Z,28.8850,-90.0250,10.0,9.3,10.0,11.3,'1111122,1111122,1111122' 
LOOP,urn:ioos:station:wmo:lopl1:1,2017-11-09T06:25:00Z,28.8850,-90.0250,10.0,9.3,20.0,10.8,'1111122,1111122,1111122' 
LOOP,urn:ioos:station:wmo:lopl1:1,2017-11-09T07:25:00Z,28.8850,-90.0250,10.0,6.2,40.0,7.7,'1111122,1111122,1111122' 
LOOP,urn:ioos:station:wmo:lopl1:1,2017-11-09T08:25:00Z,28.8850,-90.0250,10.0,7.7,10.0,9.3,'1111122,1111122,1111122' 
LOOP,urn:ioos:station:wmo:lopl1:1,2017-11-09T09:25:00Z,28.8850,-90.0250,10.0,8.2,10.0,10.8,'1111122,1111122,1111122' 